EW2546 Weather Reports


Display with metric or nautical units.
time (UTC)temp
F
wind
direction
speed
MPH
gust
MPH
rain 1hr
in
rain 24hr
in
rain mn
in
humidity
%
barometer
mb
20260901150050 66 0 0.0 1.0 0.00 0.00 0.00 77 1018.5
20260901145525 66 0 0.0 1.0 0.00 0.00 0.00 80 1018.5
20260901145026 65 0 0.0 0.0 0.00 0.00 0.00 77 1018.6
20260901144548 65 0 0.0 0.0 0.00 0.00 0.00 77 1018.6
20260901144027 65 0 0.0 0.0 0.00 0.00 0.00 76 1018.6
20260901143528 64 0 0.0 0.0 0.00 0.00 0.00 78 1018.6
20260901143100 64 0 0.0 0.0 0.00 0.00 0.00 78 1018.7
20260901142526 64 0 0.0 0.0 0.00 0.00 0.00 82 1018.7
20260901142030 63 0 0.0 0.0 0.00 0.00 0.00 83 1018.7
20260901141606 63 0 0.0 0.0 0.00 0.00 0.00 84 1018.7
20260901141026 62 0 0.0 0.0 0.00 0.00 0.00 85 1018.7
20260901140527 61 0 0.0 0.0 0.00 0.00 0.00 86 1018.8
20260901140045 61 0 0.0 0.0 0.00 0.00 0.00 86 1018.9
20260901135526 61 0 0.0 0.0 0.00 0.00 0.00 86 1018.8
20260901135025 60 0 0.0 0.0 0.00 0.00 0.00 86 1018.9
20260901134544 60 0 0.0 0.0 0.00 0.00 0.00 88 1018.9
20260901134029 60 0 0.0 0.0 0.00 0.00 0.00 88 1018.9
20260901133527 59 0 0.0 0.0 0.00 0.00 0.00 89 1018.9
20260901133103 59 0 0.0 0.0 0.00 0.00 0.00 89 1019.1
20260901132528 59 0 0.0 0.0 0.00 0.00 0.00 90 1019.2
20260901132026 58 0 0.0 0.0 0.00 0.00 0.00 90 1019.1
20260901131546 58 0 0.0 0.0 0.00 0.00 0.00 91 1019.1
20260901131024 58 0 0.0 0.0 0.00 0.00 0.00 92 1019.1
20260901130525 57 0 0.0 0.0 0.00 0.00 0.00 92 1019.2
20260901130050 57 0 0.0 0.0 0.00 0.00 0.00 93 1019.1
20260901125527 57 0 0.0 0.0 0.00 0.00 0.00 93 1019.0
20260901125030 56 0 0.0 0.0 0.00 0.00 0.00 93 1018.9
20260901124550 56 0 0.0 0.0 0.00 0.00 0.00 93 1019.0
20260901124030 56 0 0.0 0.0 0.00 0.00 0.00 93 1019.1
20260901123525 55 0 0.0 0.0 0.00 0.00 0.00 93 1019.1
20260901123050 55 0 0.0 0.0 0.00 0.00 0.00 94 1019.2
20260901122532 55 0 0.0 0.0 0.00 0.00 0.00 94 1019.2
20260901122027 55 0 0.0 0.0 0.00 0.00 0.00 94 1019.1
20260901121553 55 0 0.0 0.0 0.00 0.00 0.00 94 1019.1
20260901121028 54 0 0.0 0.0 0.00 0.00 0.00 94 1019.0
20260901120525 54 0 0.0 0.0 0.00 0.00 0.00 94 1018.9
20260901120053 54 0 0.0 0.0 0.00 0.00 0.00 94 1018.9
20260901115524 54 0 0.0 0.0 0.00 0.00 0.00 94 1018.8
20260901115025 54 0 0.0 0.0 0.00 0.00 0.00 94 1018.9
20260901114542 53 0 0.0 0.0 0.00 0.00 0.00 94 1018.9
20260901114026 53 0 0.0 0.0 0.00 0.00 0.00 94 1019.0
20260901113525 53 0 0.0 0.0 0.00 0.00 0.00 94 1018.8
20260901113053 53 0 0.0 0.0 0.00 0.00 0.00 94 1018.9
20260901112524 53 0 0.0 0.0 0.00 0.00 0.00 94 1018.9
20260901112027 52 0 0.0 0.0 0.00 0.00 0.00 94 1018.9
20260901111549 52 0 0.0 0.0 0.00 0.00 0.00 94 1018.7
20260901111026 52 0 0.0 0.0 0.00 0.00 0.00 94 1018.7
20260901110525 52 0 0.0 0.0 0.00 0.00 0.00 94 1018.7
20260901110045 52 0 0.0 0.0 0.00 0.00 0.00 94 1018.6
20260901105524 52 0 0.0 0.0 0.00 0.00 0.00 94 1018.4
20260901105024 52 0 0.0 0.0 0.00 0.00 0.00 94 1018.6
20260901104548 51 0 0.0 0.0 0.00 0.00 0.00 94 1018.5
20260901104024 51 0 0.0 0.0 0.00 0.00 0.00 94 1018.4
20260901103526 51 0 0.0 0.0 0.00 0.00 0.00 94 1018.4
20260901103051 51 0 0.0 0.0 0.00 0.00 0.00 94 1018.3
20260901102525 51 0 0.0 0.0 0.00 0.00 0.00 94 1018.2
20260901102029 51 0 0.0 0.0 0.00 0.00 0.00 94 1018.2
20260901101553 51 0 0.0 0.0 0.00 0.00 0.00 94 1018.3
20260901101024 51 0 0.0 0.0 0.00 0.00 0.00 94 1018.1
20260901100523 51 0 0.0 0.0 0.00 0.00 0.00 94 1018.1
20260901100044 51 0 0.0 0.0 0.00 0.00 0.00 94 1018.1
20260901095525 50 0 0.0 0.0 0.00 0.00 0.00 94 1018.1
20260901095027 50 0 0.0 0.0 0.00 0.00 0.00 94 1018.0
20260901094550 50 0 0.0 0.0 0.00 0.00 0.00 93 1018.0
20260901094023 50 0 0.0 0.0 0.00 0.00 0.00 94 1018.0
20260901093524 50 0 0.0 0.0 0.00 0.00 0.00 94 1018.1
20260901093051 50 0 0.0 0.0 0.00 0.00 0.00 94 1018.1
20260901092524 50 0 0.0 0.0 0.00 0.00 0.00 93 1018.0
20260901092026 50 0 0.0 0.0 0.00 0.00 0.00 93 1018.0
20260901091557 50 0 0.0 0.0 0.00 0.00 0.00 93 1018.0
20260901091028 50 0 0.0 0.0 0.00 0.00 0.00 94 1018.1
20260901090524 50 0 0.0 0.0 0.00 0.00 0.00 94 1018.1
20260901090042 50 0 0.0 0.0 0.00 0.00 0.00 93 1018.1
20260901085524 50 0 0.0 0.0 0.00 0.00 0.00 93 1018.2
20260901085025 50 0 0.0 0.0 0.00 0.00 0.00 93 1018.1
20260901084545 50 0 0.0 0.0 0.00 0.00 0.00 93 1018.2
20260901084027 51 0 0.0 0.0 0.00 0.00 0.00 93 1018.1
20260901083528 50 0 0.0 0.0 0.00 0.00 0.00 94 1018.2
20260901083046 50 0 0.0 0.0 0.00 0.00 0.00 93 1018.2
20260901082523 50 0 0.0 0.0 0.00 0.00 0.00 93 1018.1
20260901082025 50 0 0.0 0.0 0.00 0.00 0.00 93 1018.2
20260901081543 50 0 0.0 0.0 0.00 0.00 0.00 93 1018.1
20260901081025 50 0 0.0 0.0 0.00 0.00 0.00 93 1018.0
20260901080524 50 0 0.0 0.0 0.00 0.00 0.00 93 1018.1
20260901080042 50 0 0.0 0.0 0.00 0.00 0.00 93 1018.1
20260901075527 50 0 0.0 0.0 0.00 0.00 0.00 93 1018.1
20260901075029 50 0 0.0 0.0 0.00 0.00 0.00 93 1018.2
20260901074550 50 0 0.0 0.0 0.00 0.00 0.00 93 1018.4
20260901074029 50 0 0.0 0.0 0.00 0.00 0.00 93 1018.3
20260901073529 50 0 0.0 0.0 0.00 0.00 0.00 93 1018.4
20260901073045 50 0 0.0 0.0 0.00 0.00 0.00 93 1018.3
20260901072525 50 0 0.0 0.0 0.00 0.00 0.00 93 1018.4
20260901072030 50 0 0.0 0.0 0.00 0.00 0.00 93 1018.4
20260901071602 50 0 0.0 0.0 0.00 0.00 0.00 93 1018.5
20260901071027 50 0 0.0 0.0 0.00 0.00 0.00 93 1018.4
20260901070523 51 0 0.0 0.0 0.00 0.00 0.00 93 1018.5
20260901070045 51 0 0.0 0.0 0.00 0.00 0.00 93 1018.6
20260901065525 51 0 0.0 0.0 0.00 0.00 0.00 93 1018.5
20260901065025 51 0 0.0 0.0 0.00 0.00 0.00 93 1018.4
20260901064543 51 0 0.0 0.0 0.00 0.00 0.00 92 1018.5
20260901064025 51 0 0.0 0.0 0.00 0.00 0.00 92 1018.5
20260901063524 51 0 0.0 0.0 0.00 0.00 0.00 92 1018.5
20260901063042 51 0 0.0 0.0 0.00 0.00 0.00 92 1018.7
20260901062524 51 0 0.0 0.0 0.00 0.00 0.00 92 1018.6
20260901062025 51 0 0.0 0.0 0.00 0.00 0.00 92 1018.7
20260901061547 51 0 0.0 0.0 0.00 0.00 0.00 92 1018.7
20260901061028 51 0 0.0 0.0 0.00 0.00 0.00 92 1018.7
20260901060527 51 0 0.0 0.0 0.00 0.00 0.00 92 1018.7
20260901060047 52 0 0.0 0.0 0.00 0.00 0.00 92 1018.6
20260901055527 52 0 0.0 0.0 0.00 0.00 0.00 92 1018.7
20260901055029 52 0 0.0 0.0 0.00 0.00 0.00 92 1018.8
20260901054550 52 0 0.0 0.0 0.00 0.00 0.00 92 1018.8
20260901054025 52 0 0.0 0.0 0.00 0.00 0.00 92 1018.7
20260901053524 52 0 0.0 0.0 0.00 0.00 0.00 92 1018.7
20260901053048 52 0 0.0 0.0 0.00 0.00 0.00 92 1018.7
20260901052524 52 0 0.0 0.0 0.00 0.00 0.00 92 1018.6
20260901052026 52 0 0.0 0.0 0.00 0.00 0.00 92 1018.6
20260901051546 52 0 0.0 0.0 0.00 0.00 0.00 92 1018.6
20260901051024 52 0 0.0 0.0 0.00 0.00 0.00 92 1018.7
20260901050526 53 0 0.0 0.0 0.00 0.00 0.00 91 1018.7
20260901050052 53 0 0.0 0.0 0.00 0.00 0.00 91 1018.8
20260901045524 53 0 0.0 0.0 0.00 0.00 0.00 91 1018.7
20260901045029 52 0 0.0 0.0 0.00 0.00 0.00 91 1018.7
20260901044548 52 0 0.0 0.0 0.00 0.00 0.00 91 1018.7
20260901044023 52 0 0.0 0.0 0.00 0.00 0.00 91 1018.7
20260901043526 53 0 0.0 0.0 0.00 0.00 0.00 91 1018.8
20260901043108 53 0 0.0 0.0 0.00 0.00 0.00 91 1018.7
20260901042527 53 0 0.0 0.0 0.00 0.00 0.00 91 1018.7
20260901042026 53 0 0.0 0.0 0.00 0.00 0.00 91 1018.6
20260901041548 53 0 0.0 0.0 0.00 0.00 0.00 91 1018.6
20260901041025 53 0 0.0 0.0 0.00 0.00 0.00 90 1018.6
20260901040525 53 0 0.0 0.0 0.00 0.00 0.00 90 1018.6
20260901040050 53 0 0.0 0.0 0.00 0.00 0.00 90 1018.5
20260901035524 53 0 0.0 0.0 0.00 0.00 0.00 91 1018.5
20260901035024 53 0 0.0 0.0 0.00 0.00 0.00 90 1018.5
20260901034552 53 0 0.0 0.0 0.00 0.00 0.00 90 1018.6
20260901034023 54 0 0.0 0.0 0.00 0.00 0.00 90 1018.4
20260901033524 54 0 0.0 0.0 0.00 0.00 0.00 90 1018.6
20260901033101 54 0 0.0 0.0 0.00 0.00 0.00 90 1018.5
20260901032523 54 0 0.0 0.0 0.00 0.00 0.00 90 1018.4
20260901032025 54 0 0.0 0.0 0.00 0.00 0.00 90 1018.5
20260901031604 54 0 0.0 0.0 0.00 0.00 0.00 90 1018.6
20260901031027 54 0 0.0 0.0 0.00 0.00 0.00 90 1018.6
20260901030529 54 0 0.0 0.0 0.00 0.00 0.00 89 1018.8
20260901030046 54 0 0.0 0.0 0.00 0.00 0.00 89 1018.8
20260901025529 55 0 0.0 0.0 0.00 0.01 0.00 89 1018.7
20260901025025 55 0 0.0 0.0 0.00 0.01 0.00 89 1018.7
20260901024542 55 0 0.0 0.0 0.00 0.01 0.00 89 1018.8
20260901024027 55 0 0.0 0.0 0.00 0.01 0.00 89 1018.7
20260901023529 55 0 0.0 0.0 0.00 0.01 0.00 88 1018.9
20260901023059 55 0 0.0 0.0 0.00 0.01 0.00 88 1018.7
20260901022529 55 0 0.0 0.0 0.00 0.01 0.00 88 1018.7
20260901022026 55 0 0.0 0.0 0.00 0.01 0.00 87 1018.8
20260901021542 55 0 0.0 0.0 0.00 0.01 0.00 87 1018.8
20260901021026 56 0 0.0 0.0 0.00 0.01 0.00 86 1018.8
20260901020527 56 0 0.0 0.0 0.00 0.01 0.00 86 1018.7
20260901020043 56 0 0.0 0.0 0.00 0.01 0.00 85 1018.9
20260901015528 56 0 0.0 0.0 0.00 0.03 0.00 85 1018.8
20260901015032 57 0 0.0 0.0 0.00 0.03 0.00 85 1018.7
20260901014559 57 0 0.0 0.0 0.00 0.03 0.00 84 1018.7
20260901014028 57 0 0.0 0.0 0.00 0.03 0.00 84 1018.7
20260901013525 57 0 0.0 0.0 0.00 0.03 0.00 84 1018.6
20260901013049 57 0 0.0 0.0 0.00 0.03 0.00 83 1018.6
20260901012527 57 0 0.0 0.0 0.00 0.03 0.00 83 1018.6
20260901012028 58 0 0.0 0.0 0.00 0.03 0.00 83 1018.6
20260901011544 58 0 0.0 0.0 0.00 0.03 0.00 82 1018.6
20260901011026 58 0 0.0 0.0 0.00 0.03 0.00 82 1018.5
20260901010530 58 0 0.0 0.0 0.00 0.03 0.00 82 1018.4
20260901010045 58 0 0.0 0.0 0.00 0.03 0.00 82 1018.5
20260901005525 58 0 0.0 0.0 0.00 0.03 0.00 81 1018.5
20260901005025 58 0 0.0 0.0 0.00 0.03 0.00 81 1018.6
20260901004546 58 0 0.0 0.0 0.00 0.03 0.00 81 1018.5
20260901004027 58 0 0.0 0.0 0.00 0.03 0.00 79 1018.5
20260901003527 58 0 0.0 0.0 0.00 0.03 0.00 79 1018.4
20260901003100 59 0 0.0 0.0 0.00 0.03 0.00 78 1018.5
20260901002527 59 0 0.0 0.0 0.00 0.03 0.00 78 1018.6
20260901002030 59 0 0.0 0.0 0.00 0.03 0.00 77 1018.5
20260901001602 59 0 0.0 0.0 0.00 0.03 0.00 76 1018.5
20260901001028 60 0 0.0 0.0 0.00 0.03 0.00 76 1018.4
20260901000526 60 0 0.0 0.0 0.00 0.03 0.00 74 1018.4
20260901000045 60 0 0.0 0.0 0.00 0.03 0.00 74 1018.3
20260831235532 61 0 0.0 0.0 0.00 0.03 0.00 74 1018.2
20260831235028 61 0 0.0 0.0 0.00 0.03 0.00 73 1018.3
20260831234551 62 0 0.0 0.0 0.00 0.03 0.00 72 1018.2
20260831234029 62 0 0.0 0.0 0.00 0.03 0.00 71 1018.2
20260831233524 62 0 0.0 0.0 0.00 0.03 0.00 71 1018.2
20260831233050 63 0 0.0 0.0 0.00 0.03 0.00 70 1018.2
20260831232523 63 0 0.0 0.0 0.00 0.03 0.00 69 1018.3
20260831232025 64 0 0.0 0.0 0.00 0.03 0.00 68 1018.3
20260831231545 65 0 0.0 0.0 0.00 0.03 0.00 64 1018.3
20260831231026 65 0 0.0 0.0 0.00 0.03 0.00 61 1018.2
20260831230524 65 0 0.0 0.0 0.00 0.03 0.00 61 1018.1
20260831230046 66 0 0.0 0.0 0.00 0.03 0.00 61 1018.1
20260831225525 66 0 0.0 0.0 0.00 0.03 0.00 59 1018.1
20260831225027 67 0 0.0 0.0 0.00 0.03 0.00 60 1018.1
20260831224541 67 0 0.0 0.0 0.00 0.03 0.00 58 1018.1
20260831224024 67 0 0.0 0.0 0.00 0.03 0.00 58 1018.1
20260831223524 68 0 0.0 0.0 0.00 0.03 0.00 57 1018.2
20260831223044 68 0 0.0 0.0 0.00 0.03 0.00 56 1018.1
20260831222525 68 0 0.0 0.0 0.00 0.03 0.00 57 1018.1
20260831222031 69 0 0.0 0.0 0.00 0.03 0.00 57 1018.0
20260831221554 69 0 0.0 0.0 0.00 0.03 0.00 57 1017.9
20260831221025 69 0 0.0 0.0 0.00 0.03 0.00 56 1017.9
20260831220525 70 0 0.0 0.0 0.00 0.03 0.00 55 1017.9
20260831220050 70 0 0.0 0.0 0.00 0.03 0.00 55 1018.0
20260831215527 70 0 0.0 0.0 0.00 0.03 0.00 55 1018.0
20260831215025 70 0 0.0 0.0 0.00 0.03 0.00 53 1017.9
20260831214554 71 0 0.0 0.0 0.00 0.03 0.00 53 1018.0
20260831214025 71 0 0.0 0.0 0.00 0.03 0.00 52 1018.0
20260831213530 71 0 0.0 0.0 0.00 0.03 0.00 51 1018.1
20260831213050 72 0 0.0 0.0 0.00 0.03 0.00 52 1018.0
20260831212524 72 0 0.0 0.0 0.00 0.03 0.00 50 1018.1
20260831212024 72 0 0.0 1.0 0.00 0.03 0.00 50 1017.9
20260831211556 73 0 0.0 1.0 0.00 0.03 0.00 49 1018.0
20260831211023 74 0 0.0 1.0 0.00 0.03 0.00 48 1018.0
20260831210524 74 0 0.0 1.0 0.00 0.03 0.00 46 1018.1
20260831210048 75 0 0.0 0.0 0.00 0.03 0.00 46 1017.9
20260831205523 76 0 0.0 3.0 0.00 0.03 0.00 45 1018.0
20260831205030 76 0 0.0 3.0 0.00 0.03 0.00 43 1018.0
20260831204553 77 0 0.0 0.0 0.00 0.03 0.00 42 1017.9
20260831204024 79 0 0.0 0.0 0.00 0.03 0.00 39 1017.9
20260831203523 80 0 0.0 2.0 0.00 0.03 0.00 41 1018.0
20260831203057 81 0 0.0 2.0 0.00 0.03 0.00 42 1018.0
20260831202524 81 0 0.0 0.0 0.00 0.03 0.00 36 1017.9
20260831202030 81 0 0.0 0.0 0.00 0.03 0.00 34 1017.9
20260831201552 81 0 0.0 0.0 0.00 0.03 0.00 35 1017.9
20260831201029 81 0 0.0 0.0 0.00 0.03 0.00 39 1017.9
20260831200527 80 0 0.0 0.0 0.00 0.03 0.00 35 1017.9
20260831200042 80 0 0.0 0.0 0.00 0.03 0.00 39 1018.0
20260831195528 81 0 0.0 0.0 0.00 0.03 0.00 38 1018.1
20260831195028 81 0 0.0 0.0 0.00 0.03 0.00 40 1018.0
20260831194557 81 0 0.0 0.0 0.00 0.03 0.00 39 1018.1
20260831194029 80 0 0.0 0.0 0.00 0.03 0.00 40 1018.2
20260831193527 80 0 0.0 0.0 0.00 0.03 0.00 39 1018.3
20260831193049 80 0 0.0 0.0 0.00 0.03 0.00 36 1018.4
20260831192528 80 0 0.0 0.0 0.00 0.03 0.00 41 1018.4
20260831192026 80 0 0.0 0.0 0.00 0.03 0.00 44 1018.4
20260831191555 80 0 0.0 0.0 0.00 0.03 0.00 39 1018.3
20260831191028 80 0 0.0 0.0 0.00 0.03 0.00 42 1018.4
20260831190525 80 0 0.0 0.0 0.00 0.03 0.00 37 1018.4
20260831190047 79 0 0.0 0.0 0.00 0.03 0.00 42 1018.3
20260831185525 79 0 0.0 0.0 0.00 0.03 0.00 41 1018.4
20260831185031 78 0 0.0 0.0 0.00 0.03 0.00 41 1018.4
20260831184543 78 0 0.0 0.0 0.00 0.03 0.00 43 1018.6
20260831184033 78 0 0.0 0.0 0.00 0.03 0.00 42 1018.5
20260831183529 77 0 0.0 0.0 0.00 0.03 0.00 40 1018.6
20260831183047 78 0 0.0 1.0 0.00 0.03 0.00 43 1018.6
20260831182527 77 0 0.0 1.0 0.00 0.03 0.00 40 1018.6
20260831182030 78 0 0.0 0.0 0.00 0.03 0.00 39 1018.6
20260831181552 78 0 0.0 0.0 0.00 0.03 0.00 41 1018.7
20260831181025 78 0 0.0 0.0 0.00 0.03 0.00 40 1018.7
20260831180528 77 0 0.0 0.0 0.00 0.03 0.00 47 1018.8
20260831180042 77 0 0.0 0.0 0.00 0.03 0.00 44 1018.9
20260831175528 77 0 0.0 0.0 0.00 0.03 0.00 42 1019.1
20260831175029 77 0 0.0 0.0 0.00 0.03 0.00 47 1019.1
20260831174557 76 0 0.0 0.0 0.00 0.03 0.00 45 1019.1
20260831174027 76 0 0.0 0.0 0.00 0.03 0.00 42 1019.3
20260831173527 76 0 0.0 0.0 0.00 0.03 0.00 44 1019.3
20260831173101 75 0 0.0 0.0 0.00 0.03 0.00 44 1019.4
20260831172528 75 0 0.0 0.0 0.00 0.03 0.00 48 1019.4
20260831172029 74 0 0.0 0.0 0.00 0.03 0.00 49 1019.4
20260831171542 74 0 0.0 0.0 0.00 0.03 0.00 44 1019.5
20260831171024 74 0 0.0 0.0 0.00 0.03 0.00 47 1019.5
20260831170525 73 0 0.0 0.0 0.00 0.03 0.00 48 1019.5
20260831170045 72 0 0.0 0.0 0.00 0.03 0.00 51 1019.6
20260831165528 72 0 0.0 3.0 0.00 0.03 0.00 52 1019.6
20260831165026 71 0 0.0 3.0 0.00 0.03 0.00 51 1019.6
20260831164604 71 0 0.0 0.0 0.00 0.03 0.00 54 1019.7
20260831164028 70 0 0.0 1.0 0.00 0.03 0.00 56 1019.8
20260831163527 70 0 0.0 1.0 0.00 0.03 0.00 54 1020.0
20260831163043 69 0 0.0 1.0 0.00 0.03 0.00 52 1020.0
20260831162528 69 0 0.0 0.0 0.00 0.03 0.00 54 1020.1
20260831162029 68 0 0.0 0.0 0.00 0.03 0.00 51 1020.1
20260831161550 68 0 0.0 0.0 0.00 0.03 0.00 56 1020.2
20260831161024 68 0 0.0 0.0 0.00 0.03 0.00 55 1020.2
20260831160527 68 0 0.0 0.0 0.00 0.03 0.00 55 1020.2
20260831160049 68 0 0.0 0.0 0.00 0.03 0.00 57 1020.3
20260831155525 68 0 0.0 0.0 0.00 0.03 0.00 55 1020.3
20260831155033 67 0 0.0 0.0 0.00 0.03 0.00 60 1020.4
20260831154607 67 0 0.0 0.0 0.00 0.03 0.00 60 1020.5
20260831154030 67 0 0.0 0.0 0.00 0.03 0.00 59 1020.5
20260831153524 67 0 0.0 0.0 0.00 0.03 0.00 56 1020.5
20260831153050 66 0 0.0 0.0 0.00 0.03 0.00 57 1020.4
20260831152525 66 0 0.0 0.0 0.00 0.03 0.00 56 1020.4
20260831152029 65 0 0.0 0.0 0.00 0.03 0.00 58 1020.5
20260831151549 65 0 0.0 0.0 0.00 0.03 0.00 63 1020.5
20260831151026 65 0 0.0 0.0 0.00 0.03 0.00 66 1020.5
20260831150526 65 0 0.0 0.0 0.00 0.03 0.00 62 1020.5